Watertown, NY

1:53 AM EDT on April 24, 2018 (GMT -0400)
Watertown International

Weather History for KART - October, 2013

Change the Weather History Date:

Thursday, October 3, 2013

  Actual Average Record
Temperature  
Mean Temperature 56 °F 53 °F  
Max Temperature 71 °F 63 °F 83 °F (1951)
Min Temperature 40 °F 42 °F 25 °F (1994)
Degree Days  
Heating Degree Days 9 13  
Month to date heating degree days 15 37  
Since 1 July heating degree days 289 311  
Cooling Degree Days 0 0  
Month to date cooling degree days 0 0  
Year to date cooling degree days 481 359  
Growing Degree Days 6 (Base 50)    
Moisture  
Dew Point 47 °F    
Average Humidity 73    
Maximum Humidity 100    
Minimum Humidity 45    
Precipitation  
Precipitation 0.00 in 0.12 in 0.72 in (1954)
Month to date precipitation T 0.37  
Year to date precipitation 24.62 25.89  
Sea Level Pressure  
Sea Level Pressure 30.07 in    
Wind  
Wind Speed 3 mph (SW)    
Max Wind Speed 14 mph    
Max Gust Speed 16 mph    
Visibility 10 miles    
Events      
T = Trace of Precipitation, MM = Missing Value Source: NWS Daily Summary

Daily Weather History Graph

Daily Weather History Graph

Search for Another Location

Airport or City:

Astronomy

Oct. 03, 2013 Rise Set
Actual Time 7:04 AM EDT 6:40 PM EDT
Civil Twilight 6:35 AM EDT 7:09 PM EDT
Nautical Twilight 6:02 AM EDT 7:43 PM EDT
Astronomical Twilight 5:28 AM EDT 8:16 PM EDT
Moon 5:33 AM EDT (10/3) 5:49 PM EDT (10/3)
Length of Visible Light 12h 34m
Length of Day
11h 36m
Waning Crescent, 2% of the Moon is Illuminated
Oct 3
Waning Crescent
Oct 4
New
Oct 11
First Quarter
Oct 18
Full
Oct 26
Last Quarter

Hourly Weather History & Observations

Time (EDT) Temp. Dew Point Humidity Pressure Visibility Wind Dir Wind Speed Gust Speed Precip Events Conditions
12:56 AM 51.1 °F 44.1 °F 77% 30.05 in 10.0 mi SW 3.5 mph - N/A   Clear
1:56 AM 44.1 °F 42.1 °F 93% 30.06 in 10.0 mi Calm Calm - N/A   Clear
2:56 AM 43.0 °F 41.0 °F 93% 30.05 in 10.0 mi Calm Calm - N/A   Clear
3:56 AM 44.1 °F 41.0 °F 89% 30.06 in 10.0 mi Calm Calm - N/A   Clear
4:56 AM 43.0 °F 42.1 °F 97% 30.06 in 10.0 mi Calm Calm - N/A   Clear
5:56 AM 43.0 °F 39.9 °F 89% 30.08 in 10.0 mi Calm Calm - N/A   Clear
6:56 AM 43.0 °F 39.9 °F 89% 30.09 in 10.0 mi Calm Calm - N/A   Clear
7:56 AM 46.9 °F 44.1 °F 90% 30.10 in 10.0 mi Calm Calm - N/A   Clear
8:56 AM 55.9 °F 50.0 °F 80% 30.12 in 10.0 mi Calm Calm - N/A   Clear
9:56 AM 63.0 °F 53.1 °F 70% 30.13 in 10.0 mi SW 4.6 mph - N/A   Clear
10:56 AM 66.0 °F 52.0 °F 60% 30.12 in 10.0 mi SW 6.9 mph - N/A   Clear
11:56 AM 68.0 °F 54.0 °F 61% 30.10 in 10.0 mi WSW 8.1 mph - N/A   Clear
12:56 PM 70.0 °F 53.1 °F 55% 30.09 in 10.0 mi SSW 8.1 mph - N/A   Clear
1:56 PM 70.0 °F 52.0 °F 53% 30.07 in 10.0 mi WSW 10.4 mph - N/A   Clear
2:56 PM 68.0 °F 46.9 °F 47% 30.06 in 10.0 mi WSW 4.6 mph - N/A   Clear
3:56 PM 68.0 °F 53.1 °F 59% 30.06 in 10.0 mi West 9.2 mph - N/A   Clear
4:56 PM 68.0 °F 52.0 °F 56% 30.04 in 10.0 mi WSW 5.8 mph - N/A   Clear
5:56 PM 64.0 °F 53.1 °F 67% 30.05 in 10.0 mi West 4.6 mph - N/A   Clear
6:56 PM 55.9 °F 50.0 °F 80% 30.06 in 10.0 mi Calm Calm - N/A   Partly Cloudy
7:56 PM 50.0 °F 46.9 °F 89% 30.06 in 10.0 mi East 3.5 mph - N/A   Clear
8:56 PM 46.9 °F 46.0 °F 97% 30.06 in 10.0 mi ENE 3.5 mph - N/A   Partly Cloudy
9:56 PM 46.9 °F 45.0 °F 93% 30.06 in 10.0 mi Calm Calm - N/A   Clear
10:56 PM 48.0 °F 45.0 °F 89% 30.05 in 10.0 mi East 5.8 mph - N/A   Clear